Location: �clusier
(49.9361°N, 2.7869°E)
Time: 05:55:54
(UTC+00:00)

Cosmos 2016 Rocket - Pass Details

Date: 31 October 2021
Orbit: 947 x 1000 km, 83.0° (Epoch: 05 December)

Event Time Altitude Azimuth Distance (km) Brightness Sun altitude
Rises 20:21:46 0° 226° (SW) 3,640 7.2 -37.6°
Reaches altitude 10° 20:24:43 10° 239° (WSW) 2,690 6.6 -38.0°
Maximum altitude 20:29:46 26° 295° (WNW) 1,779 5.8 -38.7°
Drops below altitude 10° 20:34:50 10° 351° (N) 2,684 6.6 -39.5°
Sets 20:37:47 0° 4° (N) 3,631 7.3 -39.9°
